Find NNS 30320-48

NORAD ID: 19071 Int'l Des: 1988-033 Owner: NAVAIR Country: US operational
LEORETROGRADE

現在のビュー

3D地球を読み込み中...

NNS 30320-48について

説明を読み込み中...

次回通過

Passes for default location (London). Set your location on the main map for personalized predictions.

高度履歴

Loading altitude history...

軌道要素

1 19071U 88033B 26150.07499308 .00000085 00000-0 15114-3 0 9992
2 19071 90.3300 21.8549 0189577 59.2540 108.5485 13.27978167844992
Epoch: May 30, 2026 • Age: 12 hours

現在のステータス

高度 1032.2 km
速度 7.40 km/s
衛星直下点 29.16°N, 72.9°W
打ち上げ日 Apr 26, 1988
運用期間 38 years
タイプ other

技術仕様

分類 Payload
質量 64.00 kg
乾燥質量 64.00 kg
総質量 64.00 kg
長さ 0.30 m
直径 0.50 m
スパン 30.00 m
形状 Oct Cyl + 4 Pan + Ant
製造者 GEEW
バスタイプ Transit 5
フェーズステータス In Orbit
所有者/国 NAVAIR/US

Most Searched